www.pogodaiklimat.ru

Погода и климат >> Архив погоды >> Мали >> Ниоро-Дю-Сахель


ПОГОДА в Ниоро-Дю-Сахель

  • Прогноз погоды в Ниоро-Дю-Сахель
  • Монитор погоды в Ниоро-Дю-Сахель

АРХИВ ПОГОДЫ в Ниоро-Дю-Сахель

Время (UTC), дата Ветер
(напр.,м/с)
 
Видим.   Явления Облачность Т
(С)
Тd
(С)
f
(%)
Тe
(С)
Тes
(С)
Комфортность P
(гПа)
Po
(гПа)
Тmin
(С)
Tmax
(С)
R
(мм)
R24
(мм)
S
(см)
03 10.07 З 3 10 км 8/0
[Ac lent]
+28.0 +23.5 77 +38 +38 очень
душно
1010.8 983.8
06 10.07 Ю 3 10 км 8/0
[Ac lent]
+26.6 +22.5 78 +35 +35 очень
душно
1012.4 985.2 +26.4
09 10.07 Ю 3 10 км 9/8 900 м
[Cu med, cong Ac trans]
+28.0 +22.6 73 +37 +38 очень
душно
1014.8 987.6
12 10.07 ЮЗ 5 10 км {дождь} 8/1 900 м
[Cu hum Ac cuf]
+33.0 +22.2 53 +42 +46 опасность
перегрева
1012.1 985.1 0.6
15 10.07 З 3 10 км 9/6 900 м
[Cu med, cong Ac lent]
+35.5 +20.4 41 +42 +44 опасность
перегрева
1009.8 982.8
18 10.07 СЗ 2 10 км гроза без осадков 9/5 900 м
[Cb cap Ac lent]
+34.7 +20.5 44 +41 +42 опасность
перегрева
1009.4 982.3 +36.5 0.6
21 10.07 З 2 10 км зарница {гроза} 9/4 900 м
[Cb cap Ac lent]
+31.5 +22.1 57 +40 +40 очень
душно
1010.9 983.8
00 11.07 ЮЗ 3 10 км {гроза} 8/0
[Ac lent]
+31.6 +22.4 58 +41 +41 опасность
перегрева
1011.6 984.6
03 11.07 Ю 3 10 км зарница {гроза} 8/4 900 м
[Cb cap Ac lent]
+28.0 +23.3 76 +38 +38 очень
душно
1010.6 983.7
06 11.07 Ю 4 10 км слаб. дождь {гроза} 9/3 900 м
[Sc Ac As]
+25.0 +23.5 91 +34 +34 очень
душно
1011.8 984.6 +24.4 3
09 11.07 Ю 3 10 км слаб. дождь 9/3 900 м
[Sc diur, vesp Ac As]
+25.6 +24.3 93 +36 +38 очень
душно
1013.6 986.3
12 11.07 З 1 10 км {дождь} 9/4 900 м
[Cu hum Ci sp]
+30.1 +24.5 72 +42 +55 опасность
перегрева
1013.3 986.1 3
15 11.07 СЗ 2 10 км 9/4 900 м
[Cu med, cong Ci]
+32.5 +25.9 68 +48 +55 опасность
перегрева
1011.2 984.0
18 11.07 З 2 10 км 6/3 900 м
[Cu med, cong Ci]
+34.2 +21.3 47 +42 +43 опасность
перегрева
1010.2 983.1 +34.4
21 11.07 ЮЗ 2 10 км 5/1 900 м
[Cu hum Ci sp]
+30.1 +24.0 70 +42 +42 опасность
перегрева
1012.2 984.8
00 12.07 Ю 2 10 км 4/0
[Ci sp]
+28.4 +24.7 80 +40 +40 очень
душно
1012.2 984.9
03 12.07 ЮЗ 2 10 км 5/0
[Ac lent Ci sp]
+27.7 +23.8 79 +38 +38 очень
душно
1011.0 983.9
06 12.07 ЮЗ 2 10 км 8/5 900 м
[Sc Ac lent]
+27.0 +24.1 84 +37 +37 очень
душно
1011.8 984.7 +26.5 3
09 12.07 З 3 10 км 1/1 900 м
[Cu hum]
+30.5 +22.6 63 +40 +46 очень
душно
1013.5 986.3
12 12.07 СЗ 4 10 км ясно +34.5 +22.3 49 +43 +58 опасность
перегрева
1012.4 985.2
15 12.07 СЗ 2 10 км 3/3 900 м
[Cu hum]
+37.0 +21.1 40 +44 +55 опасность
перегрева
1009.4 982.5
18 12.07 ЮВ 2 10 км 8/3 900 м
[Cu hum Ac lent]
+36.6 +20.4 39 +43 +43 опасность
перегрева
1009.1 982.1 +37.6
21 12.07 ЮЗ 6 10 км 9/0
[Ac lent]
+30.5 +18.6 49 +35 +35 очень
душно
1010.5 983.4
00 13.07 ЮЗ 5 10 км 4/0
[Ac lent]
+29.5 +19.7 56 +36 +36 очень
душно
1011.1 984.1
03 13.07 ЮЗ 4 10 км 4/0
[Ac lent]
+29.0 +19.1 55 +34 +34 очень
душно
1009.7 982.9
06 13.07 ЮЗ 4 10 км 4/0
[Ac lent]
+28.0 +19.7 61 +34 +34 очень
душно
1010.0 983.1 +27.9
09 13.07 З 4 10 км 8/0
[Ac lent]
+30.8 +20.8 55 +38 +40 очень
душно
1012.7 985.6
12 13.07 З 3 10 км 5/1 900 м
[Cu hum Ac lent]
+35.0 +21.1 44 +42 +52 опасность
перегрева
1011.3 984.3
15 13.07 З 4 10 км 8/1 900 м
[Cu hum Ac lent]
+36.3 +20.4 40 +43 +46 опасность
перегрева
1009.4 982.5
18 13.07 ЮЗ 5 10 км 5/0
[Ac lent]
+36.0 +20.2 40 +42 +43 опасность
перегрева
1008.5 981.5 +37.0
21 13.07 Ю 6 10 км 4/0
[Ac lent]
+33.5 +20.2 46 +40 +40 очень
душно
1009.6 982.6
00 14.07 Ю 6 10 км ясно +29.4 +20.8 60 +37 +37 очень
душно
1010.3 983.4
03 14.07 ЮЗ 5 10 км 5/0
[Ac lent]
+28.2 +19.2 58 +34 +34 очень
душно
1009.9 983.0
06 14.07 ЮЗ 4 10 км 8/0
[Ac lent]
+27.0 +20.2 66 +33 +33 очень
душно
1010.7 983.7 +26.7
09 14.07 ЮЗ 5 10 км 6/0
[Ci sp]
+30.2 +18.6 50 +35 +39 очень
душно
1012.6 985.5
12 14.07 ЮЗ 5 10 км 4/0
[Ci sp]
+34.2 +19.5 42 +40 +50 очень
душно
1012.4 985.3
15 14.07 ЮЗ 4 10 км 9/0
[Ac lent]
+36.7 +20.0 38 +42 +50 опасность
перегрева
1009.9 983.0
18 14.07 З 3 10 км 8/1 900 м
[Cu hum Ci sp]
+36.4 +19.4 37 +41 +42 опасность
перегрева
1008.7 981.7 +37.2
21 14.07 ЮЗ 3 10 км 8/0
[Ci sp]
+34.0 +21.7 49 +42 +42 опасность
перегрева
1010.6 983.7
00 15.07 ЮЗ 3 10 км 8/0
[Ac lent Ci sp]
+32.1 +22.5 57 +42 +42 опасность
перегрева
1011.0 984.1
03 15.07 ЮЗ 3 10 км 8/0
[Ac lent Ci sp]
+30.8 +22.9 63 +41 +41 опасность
перегрева
1009.6 982.8
06 15.07 ЮЗ 2 10 км 8/0
[Ac lent Ci sp]
+29.5 +23.0 68 +39 +39 очень
душно
1010.2 983.4 +29.1
09 15.07 З 4 10 км 6/0
[Ac lent Ci sp]
+32.0 +22.4 57 +41 +45 опасность
перегрева
1011.7 984.8
12 15.07 СЗ 2 10 км 8/4 900 м
[Cu hum Ci sp]
+35.7 +22.1 45 +44 +55 опасность
перегрева
1010.4 983.7
15 15.07 СЗ 2 10 км гроза без осадков 8/6 900 м
[Cb cap]
+36.9 +21.2 40 +44 +48 опасность
перегрева
1009.3 982.6
18 15.07 СЗ 2 10 км в посл. час гроза 3/3 900 м
[Cu hum]
+36.0 +21.1 42 +43 +44 опасность
перегрева
1007.4 980.5 +37.7
21 15.07 СЗ 2 10 км ясно +33.1 +22.8 55 +43 +43 опасность
перегрева
1009.5 982.7
00 16.07 ЮЗ 3 10 км 8/0
[]
+31.7 +23.1 60 +42 +42 опасность
перегрева
1010.5 983.7
03 16.07 Ю 9 9000 м гроза, ливневой дождь 9/4 900 м
[Cb cap Ac As]
+23.5 +20.5 83 +29 +29 душно 1011.5 984.3
06 16.07 С 3 10 км слаб. дождь {гроза} 9/6 900 м
[St Ac As]
+23.4 +22.4 94 +32 +32 очень
душно
1010.3 983.2 9
09 16.07 З 1 10 км {дождь} 9/6 900 м
[Cu med, cong Ac As]
+24.5 +22.3 88 +32 +34 очень
душно
1012.1 984.8
12 16.07 ЮЗ 2 10 км {дождь} 8/1 900 м
[Cu hum Ac lent]
+29.0 +22.8 69 +38 +46 очень
душно
1012.7 985.5
15 16.07 СВ 1 10 км 4/0
[Ci fib]
+32.6 +23.2 58 +43 +59 опасность
перегрева
1010.7 983.5
18 16.07 С 2 10 км 1/0
[Ci fib]
+33.2 +23.6 57 +44 +46 опасность
перегрева
1010.2 982.9 +33.5
21 16.07 ЮЗ 1 10 км ясно +30.4 +23.4 66 +41 +41 опасность
перегрева
1012.3 984.8
00 17.07 ЮЗ 1 10 км 5/0
[Ac und]
+29.0 +24.0 74 +40 +40 очень
душно
1012.8 985.5

 

Местоположение метеостанции Ниоро-Дю-Сахель (Мали): широта 15.23 долгота -9.35 высота над уровнем моря 237 м.

В архиве по умолчанию представлена погода в Ниоро-Дю-Сахель за последнюю неделю. Архивные данные за месяц целиком и за предыдущие месяцы, начиная с января 2011 года, Вы можете получить, выбрав интересующий диапазон дат из раскрывающегося списка и нажав кнопку "Ввод!".


*Определитесь, кто Вы:
робот инопланетянин человек

Внимание! Время в таблицах - всемирное. Для получения местного времени необходимо прибавить поправку, которая равна 0 ч.

Смотрите также архив погоды в соседних городах и на ближайших метеорологических станциях:

Погода в Йелимане (Мали) (130 км)
Погода в Аюн-эль-Атрус (Мавритания) (166 км)
Погода в Наре (Мали) (222 км)
Погода в Ките (Мали) (241 км)
Погода в Каесе (Мали) (241 км)
Погода в Киффе (Мавритания) (269 км)
Погода в Неме (Мавритания) (270 км)
Погода в Кеньебе (Мали) (333 км)
Погода в Бамако (Мали) (336 км)
Погода в Сегу (Мали) (400 км)

Пояснения к столбцам:

Ветер - указаны скорость ветра в м/с - средняя за 10 мин, порывы в срок и между сроками (в фигурных скобках) и направление, откуда дует ветер: С - северный, СВ - северо-восточный, В - восточный, ЮВ - юго-восточный, Ю - южный, ЮЗ - юго-западный, З - западный, СЗ - северо-западный.
Видимость - горизонтальная дальность видимости в метрах или километрах. При видимости от 1 до 10 км при отсутствии осадков обычно наблюдается дымка, при ухудшении видимости до 1 км и менее - туман. В сухую погоду видимость может ухудшаться дымом, пылью или мглою.
Явления - указаны атмосферные явления, наблюдавшиеся в срок или в последний час перед сроком; фигурными скобками обозначены явления, наблюдавшиеся между сроками (за 1-3 часа до срока); квадратными скобками обозначены град или гололедные отложения с указанием их диаметра в мм.
Облачность - указаны через наклонную черту общая и нижняя облачность в баллах и высота нижней границы облаков в метрах; квадратными скобками обозначены формы облаков: Ci - перистые, Cs - перисто-слоистые, Cc - перисто-кучевые, Ac - высококучевые, As - высокослоистые, Sc - слоисто-кучевые, Ns - слоисто-дождевые, Cu - кучевые, Cb - кучево-дождевые. Подробнее классификацию облаков см. в Атласе облаков (PDF).
T - Температура воздуха - температура, измеренная на высоте 2 м над землей.
Td - Температура точки росы - температура, при понижении до которой содержащийся в воздухе водяной пар достигнет насыщения.
f - Относительная влажность воздуха - влажноcть воздуха, измеренная на высоте 2 м над землей.
Te - Эффективная температура - температура, которую ощущает одетый по сезону человек в тени. Характеристика душности погоды. При расчете учитывается влияние влажности воздуха и скорости ветра на теплоощущения человека.
Tes - Эффективная температура на солнце - температура, которую ощущает человек, с поправкой на солнечный нагрев. Характеристика знойности погоды. Зависит от высоты солнца над горизонтом, облачности и скорости ветра. Ночью, в пасмурную погоду, а также при ветре 12 м/с и более поправка равна нулю.
P - Атмосферное давление - приведенное к уровню моря атмосферное давление.
Po - Атмосферное давление - измеренное на уровне метеостанции атмосферное давление.
Tmin - Минимальная температура - минимум температуры воздуха на высоте 2 м над землей.
Tmax - Максимальная температура - максимум температуры воздуха на высоте 2 м над землей.
R - Количество осадков - Количество выпавших осадков за период времени, мм. При наведении курсора мыши на число - период времени, за который выпало указанное количество осадков.
R24 - Количество осадков - Количество выпавших осадков за 24 часа, мм.
S - Снежный покров - Высота снежного покрова, см. При наведении курсора мыши на число - состояние снежного покрова и степень покрытия местности в баллах.